Year,Month,Day,Hour,Minute,Value (Times are PST for temperature in C)
2012,03,23,00,00,5.40
2012,03,23,00,01,5.40
2012,03,23,00,02,5.40
2012,03,23,00,03,5.30
2012,03,23,00,04,5.30
2012,03,23,00,05,5.30
2012,03,23,00,06,5.30
2012,03,23,00,07,5.30
2012,03,23,00,08,5.30
2012,03,23,00,09,5.30
2012,03,23,00,10,5.30
2012,03,23,00,11,5.30
2012,03,23,00,12,5.30
2012,03,23,00,13,5.40
2012,03,23,00,14,5.40
2012,03,23,00,15,5.40
2012,03,23,00,16,5.40
2012,03,23,00,17,5.40
2012,03,23,00,18,5.40
2012,03,23,00,19,5.30
2012,03,23,00,20,5.30
2012,03,23,00,21,5.30
2012,03,23,00,22,5.30
2012,03,23,00,23,5.30
2012,03,23,00,24,5.30
2012,03,23,00,25,5.20
2012,03,23,00,26,5.20
2012,03,23,00,27,5.20
2012,03,23,00,28,5.20
2012,03,23,00,29,5.20
2012,03,23,00,30,5.20
2012,03,23,00,31,5.10
2012,03,23,00,32,5.20
2012,03,23,00,33,5.20
2012,03,23,00,34,5.10
2012,03,23,00,35,5.10
2012,03,23,00,36,5.10
2012,03,23,00,37,5.10
2012,03,23,00,38,5.10
2012,03,23,00,39,5.10
2012,03,23,00,40,5.10
2012,03,23,00,41,5.10
2012,03,23,00,42,5.10
2012,03,23,00,43,5.10
2012,03,23,00,44,5.10
2012,03,23,00,45,5.10
2012,03,23,00,46,5.10
2012,03,23,00,47,5.10
2012,03,23,00,48,5.10
2012,03,23,00,49,5.10
2012,03,23,00,50,5.10
2012,03,23,00,51,5.10
2012,03,23,00,52,5.10
2012,03,23,00,53,5.10
2012,03,23,00,54,5.10
2012,03,23,00,55,5.10
2012,03,23,00,56,5.10
2012,03,23,00,57,5.10
2012,03,23,00,58,5.10
2012,03,23,00,59,5.10
2012,03,23,01,00,5.10
2012,03,23,01,01,5.10
2012,03,23,01,02,5.10
2012,03,23,01,03,5.10
2012,03,23,01,04,5.10
2012,03,23,01,05,5.10
2012,03,23,01,06,5.10
2012,03,23,01,07,5.10
2012,03,23,01,08,5.10
2012,03,23,01,09,5.00
2012,03,23,01,10,5.00
2012,03,23,01,11,5.00
2012,03,23,01,12,5.00
2012,03,23,01,13,5.00
2012,03,23,01,14,5.00
2012,03,23,01,15,5.10
2012,03,23,01,16,5.10
2012,03,23,01,17,5.10
2012,03,23,01,18,5.00
2012,03,23,01,19,5.00
2012,03,23,01,20,5.00
2012,03,23,01,21,5.00
2012,03,23,01,22,5.00
2012,03,23,01,23,5.00
2012,03,23,01,24,5.00
2012,03,23,01,25,5.00
2012,03,23,01,26,5.00
2012,03,23,01,27,5.00
2012,03,23,01,28,5.00
2012,03,23,01,29,5.00
2012,03,23,01,30,5.00
2012,03,23,01,31,5.00
2012,03,23,01,32,5.00
2012,03,23,01,33,5.00
2012,03,23,01,34,5.00
2012,03,23,01,35,5.00
2012,03,23,01,36,5.00
2012,03,23,01,37,5.00
2012,03,23,01,38,5.00
2012,03,23,01,39,5.00
2012,03,23,01,40,5.10
2012,03,23,01,41,5.10
2012,03,23,01,42,5.10
2012,03,23,01,43,5.20
2012,03,23,01,44,5.20
2012,03,23,01,45,5.20
2012,03,23,01,46,5.30
2012,03,23,01,47,5.30
2012,03,23,01,48,5.30
2012,03,23,01,49,5.30
2012,03,23,01,50,5.40
2012,03,23,01,51,5.40
2012,03,23,01,52,5.30
2012,03,23,01,53,5.30
2012,03,23,01,54,5.30
2012,03,23,01,55,5.30
2012,03,23,01,56,5.30
2012,03,23,01,57,5.30
2012,03,23,01,58,5.20
2012,03,23,01,59,5.20
2012,03,23,02,00,5.20
2012,03,23,02,01,5.20
2012,03,23,02,02,5.30
2012,03,23,02,03,5.30
2012,03,23,02,04,5.30
2012,03,23,02,05,5.30
2012,03,23,02,06,5.30
2012,03,23,02,07,5.20
2012,03,23,02,08,5.20
2012,03,23,02,09,5.20
2012,03,23,02,10,5.10
2012,03,23,02,11,5.10
2012,03,23,02,12,5.00
2012,03,23,02,13,5.00
2012,03,23,02,14,4.90
2012,03,23,02,15,4.90
2012,03,23,02,16,4.90
2012,03,23,02,17,4.80
2012,03,23,02,18,4.80
2012,03,23,02,19,4.80
2012,03,23,02,20,4.80
2012,03,23,02,21,4.80
2012,03,23,02,22,4.80
2012,03,23,02,23,4.80
2012,03,23,02,24,4.80
2012,03,23,02,25,4.80
2012,03,23,02,26,4.80
2012,03,23,02,27,4.80
2012,03,23,02,28,4.70
2012,03,23,02,29,4.70
2012,03,23,02,30,4.70
2012,03,23,02,31,4.70
2012,03,23,02,32,4.70
2012,03,23,02,33,4.70
2012,03,23,02,34,4.70
2012,03,23,02,35,4.70
2012,03,23,02,36,4.70
2012,03,23,02,37,4.70
2012,03,23,02,38,4.70
2012,03,23,02,39,4.60
2012,03,23,02,40,4.60
2012,03,23,02,41,4.60
2012,03,23,02,42,4.60
2012,03,23,02,43,4.60
2012,03,23,02,44,4.60
2012,03,23,02,45,4.60
2012,03,23,02,46,4.60
2012,03,23,02,47,4.60
2012,03,23,02,48,4.60
2012,03,23,02,49,4.60
2012,03,23,02,50,4.60
2012,03,23,02,51,4.60
2012,03,23,02,52,4.60
2012,03,23,02,53,4.70
2012,03,23,02,54,4.70
2012,03,23,02,55,4.70
2012,03,23,02,56,4.70
2012,03,23,02,57,4.70
2012,03,23,02,58,4.70
2012,03,23,02,59,4.70
2012,03,23,03,00,4.70
2012,03,23,03,01,4.60
2012,03,23,03,02,4.60
2012,03,23,03,03,4.50
2012,03,23,03,04,4.50
2012,03,23,03,05,4.50
2012,03,23,03,06,4.50
2012,03,23,03,07,4.40
2012,03,23,03,08,4.40
2012,03,23,03,09,4.40
2012,03,23,03,10,4.40
2012,03,23,03,11,4.40
2012,03,23,03,12,4.30
2012,03,23,03,13,4.30
2012,03,23,03,14,4.30
2012,03,23,03,15,4.30
2012,03,23,03,16,4.30
2012,03,23,03,17,4.30
2012,03,23,03,18,4.20
2012,03,23,03,19,4.20
2012,03,23,03,20,4.20
2012,03,23,03,21,4.20
2012,03,23,03,22,4.20
2012,03,23,03,23,4.10
2012,03,23,03,24,4.10
2012,03,23,03,25,4.10
2012,03,23,03,26,4.10
2012,03,23,03,27,4.00
2012,03,23,03,28,4.00
2012,03,23,03,29,4.00
2012,03,23,03,30,4.00
2012,03,23,03,31,4.00
2012,03,23,03,32,4.00
2012,03,23,03,33,3.90
2012,03,23,03,34,3.90
2012,03,23,03,35,3.90
2012,03,23,03,36,3.90
2012,03,23,03,37,3.90
2012,03,23,03,38,3.90
2012,03,23,03,39,3.90
2012,03,23,03,40,3.90
2012,03,23,03,41,3.90
2012,03,23,03,42,3.80
2012,03,23,03,43,3.80
2012,03,23,03,44,3.80
2012,03,23,03,45,3.80
2012,03,23,03,46,3.80
2012,03,23,03,47,3.80
2012,03,23,03,48,3.80
2012,03,23,03,49,3.80
2012,03,23,03,50,3.80
2012,03,23,03,51,3.80
2012,03,23,03,52,3.80
2012,03,23,03,53,3.70
2012,03,23,03,54,3.70
2012,03,23,03,55,3.70
2012,03,23,03,56,3.70
2012,03,23,03,57,3.70
2012,03,23,03,58,3.70
2012,03,23,03,59,3.60
2012,03,23,04,00,3.60
2012,03,23,04,01,3.60
2012,03,23,04,02,3.50
2012,03,23,04,03,3.50
2012,03,23,04,04,3.50
2012,03,23,04,05,3.50
2012,03,23,04,06,3.50
2012,03,23,04,07,3.50
2012,03,23,04,08,3.50
2012,03,23,04,09,3.50
2012,03,23,04,10,3.50
2012,03,23,04,11,3.50
2012,03,23,04,12,3.50
2012,03,23,04,13,3.50
2012,03,23,04,14,3.50
2012,03,23,04,15,3.50
2012,03,23,04,16,3.50
2012,03,23,04,17,3.40
2012,03,23,04,18,3.40
2012,03,23,04,19,3.40
2012,03,23,04,20,3.30
2012,03,23,04,21,3.30
2012,03,23,04,22,3.30
2012,03,23,04,23,3.20
2012,03,23,04,24,3.20
2012,03,23,04,25,3.10
2012,03,23,04,26,3.10
2012,03,23,04,27,3.10
2012,03,23,04,28,3.00
2012,03,23,04,29,3.00
2012,03,23,04,30,3.00
2012,03,23,04,31,3.00
2012,03,23,04,32,2.90
2012,03,23,04,33,2.90
2012,03,23,04,34,2.90
2012,03,23,04,35,2.90
2012,03,23,04,36,2.90
2012,03,23,04,37,2.90
2012,03,23,04,38,2.90
2012,03,23,04,39,2.90
2012,03,23,04,40,2.90
2012,03,23,04,41,2.90
2012,03,23,04,42,2.90
2012,03,23,04,43,2.90
2012,03,23,04,44,2.80
2012,03,23,04,45,2.80
2012,03,23,04,46,2.80
2012,03,23,04,47,2.70
2012,03,23,04,48,2.70
2012,03,23,04,49,2.70
2012,03,23,04,50,2.70
2012,03,23,04,51,2.70
2012,03,23,04,52,2.70
2012,03,23,04,53,2.70
2012,03,23,04,54,2.70
2012,03,23,04,55,2.70
2012,03,23,04,56,2.70
2012,03,23,04,57,2.70
2012,03,23,04,58,2.60
2012,03,23,04,59,2.60
2012,03,23,05,00,2.60
2012,03,23,05,01,2.50
2012,03,23,05,02,2.40
2012,03,23,05,03,2.40
2012,03,23,05,04,2.40
2012,03,23,05,05,2.40
2012,03,23,05,06,2.30
2012,03,23,05,07,2.30
2012,03,23,05,08,2.20
2012,03,23,05,09,2.20
2012,03,23,05,10,2.20
2012,03,23,05,11,2.10
2012,03,23,05,12,2.10
2012,03,23,05,13,2.10
2012,03,23,05,14,2.10
2012,03,23,05,15,2.00
2012,03,23,05,16,2.00
2012,03,23,05,17,2.00
2012,03,23,05,18,2.00
2012,03,23,05,19,2.00
2012,03,23,05,20,2.00
2012,03,23,05,21,2.00
2012,03,23,05,22,2.00
2012,03,23,05,23,2.00
2012,03,23,05,24,2.00
2012,03,23,05,25,1.90
2012,03,23,05,26,1.90
2012,03,23,05,27,1.90
2012,03,23,05,28,1.90
2012,03,23,05,29,1.90
2012,03,23,05,30,1.90
2012,03,23,05,31,1.90
2012,03,23,05,32,1.90
2012,03,23,05,33,1.90
2012,03,23,05,34,1.80
2012,03,23,05,35,1.80
2012,03,23,05,36,1.80
2012,03,23,05,37,1.80
2012,03,23,05,38,1.80
2012,03,23,05,39,1.80
2012,03,23,05,40,1.80
2012,03,23,05,41,1.80
2012,03,23,05,42,1.80
2012,03,23,05,43,1.80
2012,03,23,05,44,1.80
2012,03,23,05,45,1.80
2012,03,23,05,46,1.80
2012,03,23,05,47,1.70
2012,03,23,05,48,1.70
2012,03,23,05,49,1.60
2012,03,23,05,50,1.60
2012,03,23,05,51,1.60
2012,03,23,05,52,1.50
2012,03,23,05,53,1.50
2012,03,23,05,54,1.50
2012,03,23,05,55,1.50
2012,03,23,05,56,1.40
2012,03,23,05,57,1.40
2012,03,23,05,58,1.40
2012,03,23,05,59,1.40
2012,03,23,06,00,1.50
2012,03,23,06,01,1.50
2012,03,23,06,02,1.50
2012,03,23,06,03,1.40
2012,03,23,06,04,1.40
2012,03,23,06,05,1.40
2012,03,23,06,06,1.40
2012,03,23,06,07,1.30
2012,03,23,06,08,1.30
2012,03,23,06,09,1.30
2012,03,23,06,10,1.30
2012,03,23,06,11,1.30
2012,03,23,06,12,1.30
2012,03,23,06,13,1.30
2012,03,23,06,14,1.30
2012,03,23,06,15,1.40
2012,03,23,06,16,1.50
2012,03,23,06,17,1.50
2012,03,23,06,18,1.60
2012,03,23,06,19,1.60
2012,03,23,06,20,1.60
2012,03,23,06,21,1.50
2012,03,23,06,22,1.50
2012,03,23,06,23,1.50
2012,03,23,06,24,1.40
2012,03,23,06,25,1.40
2012,03,23,06,26,1.40
2012,03,23,06,27,1.30
2012,03,23,06,28,1.30
2012,03,23,06,29,1.30
2012,03,23,06,30,1.30
2012,03,23,06,31,1.30
2012,03,23,06,32,1.30
2012,03,23,06,33,1.30
2012,03,23,06,34,1.20
2012,03,23,06,35,1.20
2012,03,23,06,36,1.20
2012,03,23,06,37,1.20
2012,03,23,06,38,1.20
2012,03,23,06,39,1.20
2012,03,23,06,40,1.20
2012,03,23,06,41,1.20
2012,03,23,06,42,1.20
2012,03,23,06,43,1.20
2012,03,23,06,44,1.10
2012,03,23,06,45,1.20
2012,03,23,06,46,1.10
2012,03,23,06,47,1.10
2012,03,23,06,48,1.10
2012,03,23,06,49,1.20
2012,03,23,06,50,1.20
2012,03,23,06,51,1.20
2012,03,23,06,52,1.20
2012,03,23,06,53,1.10
2012,03,23,06,54,1.10
2012,03,23,06,55,1.10
2012,03,23,06,56,1.10
2012,03,23,06,57,1.10
2012,03,23,06,58,1.10
2012,03,23,06,59,1.10
2012,03,23,07,00,1.10
2012,03,23,07,01,1.10
2012,03,23,07,02,1.20
2012,03,23,07,03,1.20
2012,03,23,07,04,1.20
2012,03,23,07,05,1.20
2012,03,23,07,06,1.20
2012,03,23,07,07,1.10
2012,03,23,07,08,1.10
2012,03,23,07,09,1.10
2012,03,23,07,10,1.10
2012,03,23,07,11,1.00
2012,03,23,07,12,1.00
2012,03,23,07,13,1.00
2012,03,23,07,14,0.90
2012,03,23,07,15,0.90
2012,03,23,07,16,0.90
2012,03,23,07,17,0.90
2012,03,23,07,18,0.90
2012,03,23,07,19,0.90
2012,03,23,07,20,0.90
2012,03,23,07,21,0.90
2012,03,23,07,22,0.90
2012,03,23,07,23,0.90
2012,03,23,07,24,0.90
2012,03,23,07,25,0.90
2012,03,23,07,26,0.90
2012,03,23,07,27,0.90
2012,03,23,07,28,0.90
2012,03,23,07,29,0.90
2012,03,23,07,30,0.90
2012,03,23,07,31,0.90
2012,03,23,07,32,0.90
2012,03,23,07,33,0.90
2012,03,23,07,34,0.90
2012,03,23,07,35,0.90
2012,03,23,07,36,0.90
2012,03,23,07,37,0.90
2012,03,23,07,38,0.90
2012,03,23,07,39,0.80
2012,03,23,07,40,0.80
2012,03,23,07,41,0.80
2012,03,23,07,42,0.90
2012,03,23,07,43,0.90
2012,03,23,07,44,0.90
2012,03,23,07,45,0.90
2012,03,23,07,46,0.90
2012,03,23,07,47,1.00
2012,03,23,07,48,1.00
2012,03,23,07,49,1.00
2012,03,23,07,50,1.00
2012,03,23,07,51,1.00
2012,03,23,07,52,1.00
2012,03,23,07,53,1.00
2012,03,23,07,54,1.10
2012,03,23,07,55,1.10
2012,03,23,07,56,1.10
2012,03,23,07,57,1.10
2012,03,23,07,58,1.10
2012,03,23,07,59,1.10
2012,03,23,08,00,1.10
2012,03,23,08,01,1.20
2012,03,23,08,02,1.20
2012,03,23,08,03,1.20
2012,03,23,08,04,1.20
2012,03,23,08,05,1.20
2012,03,23,08,06,1.30
2012,03,23,08,07,1.30
2012,03,23,08,08,1.30
2012,03,23,08,09,1.30
2012,03,23,08,10,1.30
2012,03,23,08,11,1.30
2012,03,23,08,12,1.30
2012,03,23,08,13,1.30
2012,03,23,08,14,1.30
2012,03,23,08,15,1.30
2012,03,23,08,16,1.30
2012,03,23,08,17,1.30
2012,03,23,08,18,1.40
2012,03,23,08,19,1.40
2012,03,23,08,20,1.50
2012,03,23,08,21,1.60
2012,03,23,08,22,1.60
2012,03,23,08,23,1.60
2012,03,23,08,24,1.70
2012,03,23,08,25,1.70
2012,03,23,08,26,1.80
2012,03,23,08,27,1.80
2012,03,23,08,28,1.90
2012,03,23,08,29,1.90
2012,03,23,08,30,1.90
2012,03,23,08,31,2.00
2012,03,23,08,32,2.10
2012,03,23,08,33,2.10
2012,03,23,08,34,2.10
2012,03,23,08,35,2.10
2012,03,23,08,36,2.20
2012,03,23,08,37,2.20
2012,03,23,08,38,2.20
2012,03,23,08,39,2.30
2012,03,23,08,40,2.30
2012,03,23,08,41,2.40
2012,03,23,08,42,2.40
2012,03,23,08,43,2.50
2012,03,23,08,44,2.50
2012,03,23,08,45,2.60
2012,03,23,08,46,2.70
2012,03,23,08,47,2.80
2012,03,23,08,48,2.90
2012,03,23,08,49,2.90
2012,03,23,08,50,3.00
2012,03,23,08,51,3.10
2012,03,23,08,52,3.20
2012,03,23,08,53,3.30
2012,03,23,08,54,3.40
2012,03,23,08,55,3.40
2012,03,23,08,56,3.50
2012,03,23,08,57,3.60
2012,03,23,08,58,3.70
2012,03,23,08,59,3.80
2012,03,23,09,00,3.90
2012,03,23,09,01,4.00
2012,03,23,09,02,4.00
2012,03,23,09,03,4.10
2012,03,23,09,04,4.20
2012,03,23,09,05,4.20
2012,03,23,09,06,4.20
2012,03,23,09,07,4.30
2012,03,23,09,08,4.30
2012,03,23,09,09,4.40
2012,03,23,09,10,4.40
2012,03,23,09,11,4.50
2012,03,23,09,12,4.50
2012,03,23,09,13,4.60
2012,03,23,09,14,4.60
2012,03,23,09,15,4.60
2012,03,23,09,16,4.70
2012,03,23,09,17,4.70
2012,03,23,09,18,4.70
2012,03,23,09,19,4.70
2012,03,23,09,20,4.80
2012,03,23,09,21,4.80
2012,03,23,09,22,4.80
2012,03,23,09,23,4.90
2012,03,23,09,24,4.90
2012,03,23,09,25,4.90
2012,03,23,09,26,4.90
2012,03,23,09,27,4.90
2012,03,23,09,28,4.90
2012,03,23,09,29,4.90
2012,03,23,09,30,4.90
2012,03,23,09,31,4.90
2012,03,23,09,32,4.90
2012,03,23,09,33,4.90
2012,03,23,09,34,4.90
2012,03,23,09,35,4.90
2012,03,23,09,36,4.90
2012,03,23,09,37,5.00
2012,03,23,09,38,5.00
2012,03,23,09,39,5.00
2012,03,23,09,40,5.10
2012,03,23,09,41,5.10
2012,03,23,09,42,5.20
2012,03,23,09,43,5.20
2012,03,23,09,44,5.30
2012,03,23,09,45,5.30
2012,03,23,09,46,5.30
2012,03,23,09,47,5.30
2012,03,23,09,48,5.30
2012,03,23,09,49,5.30
2012,03,23,09,50,5.20
2012,03,23,09,51,5.30
2012,03,23,09,52,5.30
2012,03,23,09,53,5.30
2012,03,23,09,54,5.30
2012,03,23,09,55,5.40
2012,03,23,09,56,5.40
2012,03,23,09,57,5.50
2012,03,23,09,58,5.50
2012,03,23,09,59,5.60
2012,03,23,10,00,5.50
2012,03,23,10,01,5.50
2012,03,23,10,02,5.50
2012,03,23,10,03,5.50
2012,03,23,10,04,5.50
2012,03,23,10,05,5.50
2012,03,23,10,06,5.50
2012,03,23,10,07,5.50
2012,03,23,10,08,5.60
2012,03,23,10,09,5.70
2012,03,23,10,10,5.70
2012,03,23,10,11,5.70
2012,03,23,10,12,5.70
2012,03,23,10,13,5.80
2012,03,23,10,14,5.80
2012,03,23,10,15,5.90
2012,03,23,10,16,5.90
2012,03,23,10,17,6.00
2012,03,23,10,18,6.10
2012,03,23,10,19,6.10
2012,03,23,10,20,6.10
2012,03,23,10,21,6.10
2012,03,23,10,22,6.20
2012,03,23,10,23,6.20
2012,03,23,10,24,6.30
2012,03,23,10,25,6.30
2012,03,23,10,26,6.30
2012,03,23,10,27,6.30
2012,03,23,10,28,6.30
2012,03,23,10,29,6.30
2012,03,23,10,30,6.30
2012,03,23,10,31,6.20
2012,03,23,10,32,6.30
2012,03,23,10,33,6.30
2012,03,23,10,34,6.30
2012,03,23,10,35,6.30
2012,03,23,10,36,6.40
2012,03,23,10,37,6.40
2012,03,23,10,38,6.40
2012,03,23,10,39,6.40
2012,03,23,10,40,6.50
2012,03,23,10,41,6.50
2012,03,23,10,42,6.40
2012,03,23,10,43,6.30
2012,03,23,10,44,6.30
2012,03,23,10,45,6.30
2012,03,23,10,46,6.30
2012,03,23,10,47,6.30
2012,03,23,10,48,6.40
2012,03,23,10,49,6.30
2012,03,23,10,50,6.30
2012,03,23,10,51,6.20
2012,03,23,10,52,6.20
2012,03,23,10,53,6.30
2012,03,23,10,54,6.30
2012,03,23,10,55,6.30
2012,03,23,10,56,6.30
2012,03,23,10,57,6.30
2012,03,23,10,58,6.30
2012,03,23,10,59,6.40
2012,03,23,11,00,6.40
2012,03,23,11,01,6.40
2012,03,23,11,02,6.40
2012,03,23,11,03,6.50
2012,03,23,11,04,6.40
2012,03,23,11,05,6.40
2012,03,23,11,06,6.40
2012,03,23,11,07,6.40
2012,03,23,11,08,6.40
2012,03,23,11,09,6.40
2012,03,23,11,10,6.40
2012,03,23,11,11,6.30
2012,03,23,11,12,6.40
2012,03,23,11,13,6.40
2012,03,23,11,14,6.30
2012,03,23,11,15,6.40
2012,03,23,11,16,6.50
2012,03,23,11,17,6.60
2012,03,23,11,18,6.60
2012,03,23,11,19,6.60
2012,03,23,11,20,6.50
2012,03,23,11,21,6.50
2012,03,23,11,22,6.50
2012,03,23,11,23,6.60
2012,03,23,11,24,6.60
2012,03,23,11,25,6.50
2012,03,23,11,26,6.50
2012,03,23,11,27,6.60
2012,03,23,11,28,6.60
2012,03,23,11,29,6.50
2012,03,23,11,30,6.50
2012,03,23,11,31,6.50
2012,03,23,11,32,6.50
2012,03,23,11,33,6.40
2012,03,23,11,34,6.50
2012,03,23,11,35,6.50
2012,03,23,11,36,6.50
2012,03,23,11,37,6.60
2012,03,23,11,38,6.70
2012,03,23,11,39,6.70
2012,03,23,11,40,6.70
2012,03,23,11,41,6.70
2012,03,23,11,42,6.70
2012,03,23,11,43,6.70
2012,03,23,11,44,6.80
2012,03,23,11,45,6.80
2012,03,23,11,46,6.90
2012,03,23,11,47,6.90
2012,03,23,11,48,6.80
2012,03,23,11,49,6.80
2012,03,23,11,50,6.80
2012,03,23,11,51,6.80
2012,03,23,11,52,6.80
2012,03,23,11,53,6.80
2012,03,23,11,54,6.80
2012,03,23,11,55,6.80
2012,03,23,11,56,6.90
2012,03,23,11,57,6.90
2012,03,23,11,58,6.90
2012,03,23,11,59,6.90
2012,03,23,12,00,6.90
2012,03,23,12,01,6.80
2012,03,23,12,02,6.80
2012,03,23,12,03,6.80
2012,03,23,12,04,6.80
2012,03,23,12,05,6.70
2012,03,23,12,06,6.80
2012,03,23,12,07,6.80
2012,03,23,12,08,6.80
2012,03,23,12,09,6.80
2012,03,23,12,10,6.90
2012,03,23,12,11,7.00
2012,03,23,12,12,7.10
2012,03,23,12,13,7.10
2012,03,23,12,14,7.10
2012,03,23,12,15,7.00
2012,03,23,12,16,7.00
2012,03,23,12,17,7.00
2012,03,23,12,18,7.00
2012,03,23,12,19,7.00
2012,03,23,12,20,7.10
2012,03,23,12,21,7.10
2012,03,23,12,22,7.20
2012,03,23,12,23,7.20
2012,03,23,12,24,7.30
2012,03,23,12,25,7.30
2012,03,23,12,26,7.30
2012,03,23,12,27,7.20
2012,03,23,12,28,7.20
2012,03,23,12,29,7.20
2012,03,23,12,30,7.30
2012,03,23,12,31,7.30
2012,03,23,12,32,7.40
2012,03,23,12,33,7.40
2012,03,23,12,34,7.30
2012,03,23,12,35,7.30
2012,03,23,12,36,7.20
2012,03,23,12,37,7.20
2012,03,23,12,38,7.10
2012,03,23,12,39,7.10
2012,03,23,12,40,7.10
2012,03,23,12,41,7.20
2012,03,23,12,42,7.20
2012,03,23,12,43,7.20
2012,03,23,12,44,7.30
2012,03,23,12,45,7.30
2012,03,23,12,46,7.40
2012,03,23,12,47,7.40
2012,03,23,12,48,7.50
2012,03,23,12,49,7.50
2012,03,23,12,50,7.40
2012,03,23,12,51,7.40
2012,03,23,12,52,7.30
2012,03,23,12,53,7.30
2012,03,23,12,54,7.30
2012,03,23,12,55,7.40
2012,03,23,12,56,7.50
2012,03,23,12,57,7.60
2012,03,23,12,58,7.50
2012,03,23,12,59,7.50
2012,03,23,13,00,7.50
2012,03,23,13,01,7.50
2012,03,23,13,02,7.50
2012,03,23,13,03,7.60
2012,03,23,13,04,7.70
2012,03,23,13,05,7.70
2012,03,23,13,06,7.80
2012,03,23,13,07,7.80
2012,03,23,13,08,7.80
2012,03,23,13,09,7.90
2012,03,23,13,10,7.90
2012,03,23,13,11,7.90
2012,03,23,13,12,8.00
2012,03,23,13,13,8.20
2012,03,23,13,14,8.40
2012,03,23,13,15,8.40
2012,03,23,13,16,8.40
2012,03,23,13,17,8.30
2012,03,23,13,18,8.20
2012,03,23,13,19,8.20
2012,03,23,13,20,8.20
2012,03,23,13,21,8.30
2012,03,23,13,22,8.30
2012,03,23,13,23,8.20
2012,03,23,13,24,8.20
2012,03,23,13,25,8.20
2012,03,23,13,26,8.30
2012,03,23,13,27,8.30
2012,03,23,13,28,8.30
2012,03,23,13,29,8.30
2012,03,23,13,30,8.30
2012,03,23,13,31,8.30
2012,03,23,13,32,8.30
2012,03,23,13,33,8.30
2012,03,23,13,34,8.30
2012,03,23,13,35,8.30
2012,03,23,13,36,8.30
2012,03,23,13,37,8.30
2012,03,23,13,38,8.40
2012,03,23,13,39,8.40
2012,03,23,13,40,8.40
2012,03,23,13,41,8.40
2012,03,23,13,42,8.40
2012,03,23,13,43,8.40
2012,03,23,13,44,8.50
2012,03,23,13,45,8.50
2012,03,23,13,46,8.50
2012,03,23,13,47,8.50
2012,03,23,13,48,8.60
2012,03,23,13,49,8.60
2012,03,23,13,50,8.60
2012,03,23,13,51,8.60
2012,03,23,13,52,8.60
2012,03,23,13,53,8.50
2012,03,23,13,54,8.50
2012,03,23,13,55,8.50
2012,03,23,13,56,8.60
2012,03,23,13,57,8.50
2012,03,23,13,58,8.50
2012,03,23,13,59,8.50
2012,03,23,14,00,8.60
2012,03,23,14,01,8.60
2012,03,23,14,02,8.60
2012,03,23,14,03,8.60
2012,03,23,14,04,8.60
2012,03,23,14,05,8.60
2012,03,23,14,06,8.70
2012,03,23,14,07,8.80
2012,03,23,14,08,8.70
2012,03,23,14,09,8.60
2012,03,23,14,10,8.50
2012,03,23,14,11,8.40
2012,03,23,14,12,8.30
2012,03,23,14,13,8.40
2012,03,23,14,14,8.40
2012,03,23,14,15,8.50
2012,03,23,14,16,8.70
2012,03,23,14,17,8.70
2012,03,23,14,18,8.80
2012,03,23,14,19,8.80
2012,03,23,14,20,8.70
2012,03,23,14,21,8.80
2012,03,23,14,22,8.80
2012,03,23,14,23,8.80
2012,03,23,14,24,8.70
2012,03,23,14,25,8.70
2012,03,23,14,26,8.70
2012,03,23,14,27,8.70
2012,03,23,14,28,8.80
2012,03,23,14,29,8.80
2012,03,23,14,30,8.80
2012,03,23,14,31,8.80
2012,03,23,14,32,8.70
2012,03,23,14,33,8.70
2012,03,23,14,34,8.60
2012,03,23,14,35,8.60
2012,03,23,14,36,8.60
2012,03,23,14,37,8.60
2012,03,23,14,38,8.60
2012,03,23,14,39,8.60
2012,03,23,14,40,8.60
2012,03,23,14,41,8.70
2012,03,23,14,42,8.80
2012,03,23,14,43,8.80
2012,03,23,14,44,8.80
2012,03,23,14,45,8.90
2012,03,23,14,46,9.00
2012,03,23,14,47,9.10
2012,03,23,14,48,9.20
2012,03,23,14,49,9.30
2012,03,23,14,50,9.40
2012,03,23,14,51,9.50
2012,03,23,14,52,9.50
2012,03,23,14,53,9.50
2012,03,23,14,54,9.50
2012,03,23,14,55,9.50
2012,03,23,14,56,9.50
2012,03,23,14,57,9.60
2012,03,23,14,58,9.50
2012,03,23,14,59,9.40
2012,03,23,15,00,9.40
2012,03,23,15,01,9.40
2012,03,23,15,02,9.40
2012,03,23,15,03,9.40
2012,03,23,15,04,9.40
2012,03,23,15,05,9.40
2012,03,23,15,06,9.40
2012,03,23,15,07,9.40
2012,03,23,15,08,9.40
2012,03,23,15,09,9.40
2012,03,23,15,10,9.40
2012,03,23,15,11,9.50
2012,03,23,15,12,9.50
2012,03,23,15,13,9.50
2012,03,23,15,14,9.50
2012,03,23,15,15,9.50
2012,03,23,15,16,9.50
2012,03,23,15,17,9.40
2012,03,23,15,18,9.40
2012,03,23,15,19,9.40
2012,03,23,15,20,9.40
2012,03,23,15,21,9.50
2012,03,23,15,22,9.60
2012,03,23,15,23,9.60
2012,03,23,15,24,9.60
2012,03,23,15,25,9.70
2012,03,23,15,26,9.80
2012,03,23,15,27,9.70
2012,03,23,15,28,9.70
2012,03,23,15,29,9.60
2012,03,23,15,30,9.60
2012,03,23,15,31,9.60
2012,03,23,15,32,9.60
2012,03,23,15,33,9.60
2012,03,23,15,34,9.60
2012,03,23,15,35,9.60
2012,03,23,15,36,9.60
2012,03,23,15,37,9.60
2012,03,23,15,38,9.60
2012,03,23,15,39,9.60
2012,03,23,15,40,9.70
2012,03,23,15,41,9.70
2012,03,23,15,42,9.80
2012,03,23,15,43,9.80
2012,03,23,15,44,9.80
2012,03,23,15,45,9.80
2012,03,23,15,46,9.80
2012,03,23,15,47,9.80
2012,03,23,15,48,9.80
2012,03,23,15,49,9.70
2012,03,23,15,50,9.70
2012,03,23,15,51,9.70
2012,03,23,15,52,9.60
2012,03,23,15,53,9.60
2012,03,23,15,54,9.70
2012,03,23,15,55,9.70
2012,03,23,15,56,9.70
2012,03,23,15,57,9.70
2012,03,23,15,58,9.70
2012,03,23,15,59,9.70
2012,03,23,16,00,9.70
2012,03,23,16,01,9.70
2012,03,23,16,02,9.70
2012,03,23,16,03,9.70
2012,03,23,16,04,9.80
2012,03,23,16,05,9.80
2012,03,23,16,06,9.80
2012,03,23,16,07,9.90
2012,03,23,16,08,9.90
2012,03,23,16,09,10.00
2012,03,23,16,10,10.10
2012,03,23,16,11,10.20
2012,03,23,16,12,10.30
2012,03,23,16,13,10.40
2012,03,23,16,14,10.50
2012,03,23,16,15,10.50
2012,03,23,16,16,10.60
2012,03,23,16,17,10.60
2012,03,23,16,18,10.50
2012,03,23,16,19,10.50
2012,03,23,16,20,10.50
2012,03,23,16,21,10.60
2012,03,23,16,22,10.70
2012,03,23,16,23,10.70
2012,03,23,16,24,10.80
2012,03,23,16,25,10.80
2012,03,23,16,26,10.80
2012,03,23,16,27,10.80
2012,03,23,16,28,10.70
2012,03,23,16,29,10.60
2012,03,23,16,30,10.60
2012,03,23,16,31,10.60
2012,03,23,16,32,10.60
2012,03,23,16,33,10.60
2012,03,23,16,34,10.60
2012,03,23,16,35,10.60
2012,03,23,16,36,10.60
2012,03,23,16,37,10.70
2012,03,23,16,38,10.60
2012,03,23,16,39,10.50
2012,03,23,16,40,10.50
2012,03,23,16,41,10.40
2012,03,23,16,42,10.40
2012,03,23,16,43,10.40
2012,03,23,16,44,10.40
2012,03,23,16,45,10.40
2012,03,23,16,46,10.40
2012,03,23,16,47,10.40
2012,03,23,16,48,10.40
2012,03,23,16,49,10.40
2012,03,23,16,50,10.30
2012,03,23,16,51,10.30
2012,03,23,16,52,10.30
2012,03,23,16,53,10.20
2012,03,23,16,54,10.20
2012,03,23,16,55,10.20
2012,03,23,16,56,10.20
2012,03,23,16,57,10.30
2012,03,23,16,58,10.30
2012,03,23,16,59,10.30
2012,03,23,17,00,10.20
2012,03,23,17,01,10.20
2012,03,23,17,02,10.20
2012,03,23,17,03,10.20
2012,03,23,17,04,10.30
2012,03,23,17,05,10.30
2012,03,23,17,06,10.40
2012,03,23,17,07,10.40
2012,03,23,17,08,10.40
2012,03,23,17,09,10.40
2012,03,23,17,10,10.40
2012,03,23,17,11,10.40
2012,03,23,17,12,10.30
2012,03,23,17,13,10.30
2012,03,23,17,14,10.30
2012,03,23,17,15,10.30
2012,03,23,17,16,10.30
2012,03,23,17,17,10.20
2012,03,23,17,18,10.20
2012,03,23,17,19,10.20
2012,03,23,17,20,10.20
2012,03,23,17,21,10.20
2012,03,23,17,22,10.30
2012,03,23,17,23,10.30
2012,03,23,17,24,10.30
2012,03,23,17,25,10.30
2012,03,23,17,26,10.30
2012,03,23,17,27,10.30
2012,03,23,17,28,10.30
2012,03,23,17,29,10.40
2012,03,23,17,30,10.40
2012,03,23,17,31,10.50
2012,03,23,17,32,10.50
2012,03,23,17,33,10.50
2012,03,23,17,34,10.50
2012,03,23,17,35,10.50
2012,03,23,17,36,10.60
2012,03,23,17,37,10.60
2012,03,23,17,38,10.60
2012,03,23,17,39,10.50
2012,03,23,17,40,10.50
2012,03,23,17,41,10.40
2012,03,23,17,42,10.40
2012,03,23,17,43,10.40
2012,03,23,17,44,10.30
2012,03,23,17,45,10.30
2012,03,23,17,46,10.30
2012,03,23,17,47,10.30
2012,03,23,17,48,10.30
2012,03,23,17,49,10.30
2012,03,23,17,50,10.30
2012,03,23,17,51,10.30
2012,03,23,17,52,10.40
2012,03,23,17,53,10.40
2012,03,23,17,54,10.40
2012,03,23,17,55,10.40
2012,03,23,17,56,10.40
2012,03,23,17,57,10.40
2012,03,23,17,58,10.30
2012,03,23,17,59,10.30
2012,03,23,18,00,10.30
2012,03,23,18,01,10.20